Location: Unspecified
(0.0000°N, 0.0000°E)
Time: 18:02:30
(UTC+00:00)

STARLINK 1042 - Pass Details

Date: 16 January 2020
Orbit: 548 x 551 km, 53.0° (Epoch: 17 January)

Event Time Altitude Azimuth Distance (km) Brightness Sun altitude
Rises 18:55:07 0° 323° (NW) 2,700 7.4 -10.6°
Reaches altitude 10° 18:57:21 10° 321° (NW) 1,810 6.5 -11.1°
Maximum altitude 19:01:27 74° 237° (WSW) 571 3.8 -12.1°
Drops below altitude 10° 19:05:35 10° 151° (SSE) 1,820 6.2 -13.0°
Sets 19:07:49 0° 149° (SSE) 2,715 7.1 -13.6°
